Flag for Germany Weather past 2 weeks in Wismar, Mecklenburg-Western Pomerania, Germany

Now
61 °F

Overcast.


Feels Like: 61 °F
Forecast: 56 / 69 °F
Wind: 1 mph from South

Location: Schwerin

Current Time: Aug 29, 2014 at 11:10:57 AM

Latest Report: Aug 29, 2014 at 10:00 AM


Visibility: 16 mi

Pressure: 29.92 "Hg

Humidity: 70%

Dew point: 51 °F

Location of WismarLocation

Historic Weather in Wismar — Graph

°F

Wismar temperature yesterday

Maximum temperature yesterday: 73 °F (at 6:00 PM)
Minimum temperature yesterday: 47 °F (at 6:00 AM)
Average temperature yesterday: 60 °F

Past Weeks' High & Low Weather Summary

 TemperatureHumidityPressure
High73 °F (Aug 28, 6:00 PM)100% (Aug 26, 6:00 AM)30.06 "Hg (Aug 26, 6:00 AM)
Low44 °F (Aug 26, 7:00 AM)34% (Aug 28, 6:00 PM)29.50 "Hg (Aug 18, 12:00 PM)
Average57 °F76%29.85 "Hg
* Reported Aug 14 10:00 AM — Aug 29 10:00 AM, Wismar, Weather by CustomWeather, © 2014

Note: Actual official high and low records may vary slightly from our data, if they occured in-between our weather recording intervals... More about our weather records

Advertising

Wismar weather history for previous 24 hours

 ConditionsComfort  
Time TempWeatherWind HumidityBarometerVisibility
10:00 AM
Aug 29
61 °FOvercast.1 mph70%29.92 "Hg16 mi
9:00 AM60 °FOvercast.1 mph68%29.92 "Hg19 mi
8:00 AM59 °FOvercast.2 mph70%29.92 "Hg16 mi
7:00 AM58 °FOvercast.1 mph77%29.93 "Hg17 mi
6:00 AM57 °FOvercast.1 mph73%29.93 "Hg22 mi
5:00 AM59 °FOvercast.2 mph67%29.94 "Hg22 mi
4:00 AM61 °FPassing clouds.2 mph60%29.94 "Hg34 mi
3:00 AM60 °FOvercast.2 mph65%29.95 "Hg28 mi
2:00 AM57 °FOvercast.2 mph74%29.97 "Hg25 mi
1:00 AM56 °FOvercast.1 mph82%29.98 "Hg25 mi
12:00 AM56 °FOvercast.2 mph82%29.99 "Hg25 mi
10:00 PM
Aug 28
62 °FOvercast.2 mph58%29.99 "Hg25 mi
9:00 PM63 °FPassing clouds.2 mph53%29.99 "Hg22 mi
8:00 PM67 °FScattered clouds.1 mph43%29.98 "Hg22 mi
7:00 PM71 °FScattered clouds.2 mph38%29.98 "Hg31 mi
6:00 PM73 °FPartly sunny.2 mph34%29.99 "Hg28 mi
4:00 PM72 °FPassing clouds.3 mph37%30.01 "Hg31 mi
3:00 PM70 °FScattered clouds.1 mph39%30.03 "Hg34 mi
2:00 PM69 °FScattered clouds.2 mph42%30.03 "Hg31 mi
1:00 PM68 °FOvercast.3 mph48%30.04 "Hg28 mi
12:00 PM67 °FScattered clouds.3 mph50%30.05 "Hg19 mi
Weather by CustomWeather, © 2014

See weather overviewHow to use our weather pages